This is the latest recevied weather packets stored in our database for station/object N5COP-13. If no packets are shown the sender has not sent any weather packets the latest 10 day(s).
| Time | Temp. | Humidity | Pressure | Rain* | Wind** | Luminosity | Snow |
|---|---|---|---|---|---|---|---|
| 1777481250 | 14.44° C | 52% | 1020.2 hPa | 0 mm | - | 580 W/m² | - |
| 1777480947 | 14.44° C | 52% | 1020.4 hPa | 0 mm | - | 727 W/m² | - |
| 1777480643 | 14.44° C | 53% | 1020.4 hPa | 0 mm | - | 689 W/m² | - |
| 1777480340 | 14.44° C | 54% | 1020.2 hPa | 0 mm | - | 555 W/m² | - |
| 1777480035 | 13.89° C | 55% | 1020 hPa | 0 mm | - | 701 W/m² | - |
| 1777479732 | 13.89° C | 55% | 1020.1 hPa | 0 mm | - | 735 W/m² | - |
| 1777479430 | 13.33° C | 56% | 1020.1 hPa | 0 mm | - | 686 W/m² | - |
| 1777479126 | 13.33° C | 56% | 1020.4 hPa | 0 mm | - | 477 W/m² | - |
| 1777478822 | 13.89° C | 56% | 1020.6 hPa | 0 mm | - | 543 W/m² | - |
| 1777478514 | 13.33° C | 57% | 1020.6 hPa | 0 mm | - | 648 W/m² | - |
| 1777478211 | 13.89° C | 58% | 1020.7 hPa | 0 mm | - | 626 W/m² | - |
| 1777477907 | 13.89° C | 60% | 1020.6 hPa | 0 mm | - | 621 W/m² | - |
| 1777477602 | 12.78° C | 60% | 1020.9 hPa | 0 mm | - | 595 W/m² | - |
| 1777477298 | 12.78° C | 62% | 1020.7 hPa | 0 mm | - | 582 W/m² | - |
| 1777476995 | 12.78° C | 63% | 1020.7 hPa | 0 mm | - | 590 W/m² | - |
| 1777476693 | 12.22° C | 64% | 1020.8 hPa | 0 mm | - | 555 W/m² | - |
| 1777476389 | 11.67° C | 65% | 1020.9 hPa | 0 mm | - | 517 W/m² | - |
| 1777476086 | 11.11° C | 65% | 1020.9 hPa | 0 mm | - | 508 W/m² | - |
| 1777475781 | 11.67° C | 66% | 1021 hPa | 0 mm | - | 404 W/m² | - |
| 1777475478 | 11.11° C | 66% | 1020.8 hPa | 0 mm | - | 390 W/m² | - |
| 1777475173 | 11.11° C | 67% | 1020.8 hPa | 0 mm | - | 403 W/m² | - |
| 1777474870 | 10.56° C | 68% | 1020.8 hPa | 0 mm | - | 381 W/m² | - |
| 1777474565 | 10.56° C | 68% | 1020.9 hPa | 0 mm | - | 336 W/m² | - |
| 1777474262 | 10.56° C | 69% | 1020.9 hPa | 0 mm | - | 387 W/m² | - |
| 1777473959 | 10.56° C | 69% | 1020.8 hPa | 0 mm | - | 317 W/m² | - |
* Rain latest hour (hover to see other rain measurements)
** Current wind speed in m/s (hover to see current wind gust speed)